CAPE
0 0 0 0 0 0 0 0 0 0 0 0 0 0 0 0 0 0 0 0 0 156 0 0 0 0 10 0 96 60 270 51 6 53 0 0 26 106 100 64 184 493 717 1113 1091
0 0 0 0 0 0 0 0 0 0 0 0 0 0 0 0 0 0 0 0 0 0 0 0 0 0 0 0 47 1 100 69 53 162 133 95 223 171 429 295 378 743 1095 1031 1237
0 0 0 0 0 0 0 0 0 0 0 0 0 0 0 0 0 0 0 0 0 0 0 0 0 0 0 0 8 0 20 8 34 42 156 52 219 407 196 324 410 837 1140 1241 1342
0 0 0 0 0 0 0 0 0 0 0 0 0 0 0 0 0 0 0 0 0 0 0 0 0 0 0 1 63 104 56 85 2 0 174 131 58 303 207 415 391 859 1147 1297 1367
0 0 0 0 0 0 0 0 0 0 0 0 0 0 0 0 0 0 2 0 0 0 0 0 0 0 0 2 56 57 106 0 0 0 59 272 393 240 399 692 783 909 1031 1198 1319
0 0 0 0 0 0 0 0 0 0 0 0 0 0 0 0 0 0 0 0 0 0 0 0 0 0 0 0 63 67 76 0 0 0 0 112 112 173 594 803 929 993 1007 1090 1201
0 0 0 0 0 0 0 0 0 0 0 0 0 0 0 0 0 0 0 0 0 0 0 0 0 0 0 34 68 29 10 0 0 0 0 93 21 123 251 432 944 1067 1110 1143 1311
0 0 0 0 0 0 0 0 0 0 0 0 0 0 0 0 0 0 0 0 0 0 0 0 0 0 0 1 64 37 32 0 0 15 0 25 41 25 82 144 864 1066 1205 1229 1384
0 0 0 0 0 0 0 0 0 0 0 0 0 0 0 0 0 0 0 0 0 0 0 0 0 0 0 2 47 25 53 6 2 48 31 12 111 64 62 159 958 1133 1268 1384 1468
0 0 0 0 0 0 0 0 0 0 0 0 0 0 0 0 0 0 0 0 0 0 0 0 0 0 0 2 60 46 5 11 21 66 4 1 167 211 126 5 1036 1314 1510 1592 1668
0 0 0 0 0 0 0 0 0 0 0 0 0 0 0 0 0 0 0 0 0 0 0 0 0 0 0 1 13 2 0 0 111 128 0 0 0 142 76 172 514 1551 1751 1688 1872
0 1 1 0 0 0 0 0 0 0 0 0 0 0 0 0 0 0 0 0 0 0 0 0 0 0 0 0 5 9 8 126 166 120 0 0 75 26 217 182 161 650 790 1608 1717
1 1 1 0 0 0 0 0 0 0 0 0 0 0 0 0 0 0 0 0 0 0 0 0 0 0 0 0 0 54 19 57 88 14 2 0 27 66 8 79 98 16 961 1991 1978
2 2 1 2 0 0 0 0 0 0 0 0 0 0 0 0 0 0 0 0 0 0 0 0 0 0 0 0 0 42 0 3 13 21 15 0 25 407 21 15 147 128 159 1314 2183
2 2 1 3 0 0 0 0 0 0 0 0 0 0 0 0 0 0 0 0 0 0 0 0 0 0 0 0 0 0 0 0 4 3 0 19 44 380 88 205 68 422 719 781 2435
2 2 1 0 0 0 0 0 0 0 0 0 0 0 0 0 0 0 0 0 0 0 0 0 0 0 0 0 0 0 0 1 0 0 27 104 60 317 14 42 389 752 821 928 2031
1 1 1 0 0 0 0 0 0 0 0 0 0 0 0 0 0 0 0 0 0 0 0 0 0 0 0 0 0 0 0 11 31 21 37 149 36 372 227 379 344 696 1048 1188 1942
0 0 0 0 0 0 0 0 0 0 0 0 0 0 0 0 0 0 0 0 0 0 0 0 0 0 0 0 0 0 0 23 282 191 132 377 205 343 458 359 430 250 550 1318 1887
0 0 0 0 0 0 0 0 0 0 0 0 0 0 0 0 0 0 0 0 0 0 0 0 1 0 0 0 0 0 0 0 55 59 65 78 51 281 174 275 434 856 1133 1622 1686
0 0 0 0 0 0 0 0 0 0 0 0 0 0 0 0 0 0 0 0 0 0 0 1 0 0 0 0 0 0 14 45 24 228 289 191 598 159 286 532 1234 1626 2198 2526 2209
0 0 0 0 0 0 0 0 0 0 0 0 0 0 0 0 25 0 0 0 0 0 0 0 0 17 6 0 2 7 8 175 138 191 212 283 527 155 188 749 1582 2086 2475 2623 2412
0 0 0 0 0 0 0 0 0 0 0 0 0 0 0 0 6 3 0 0 0 0 1 0 0 13 31 10 1 0 27 78 123 519 279 120 474 118 185 1612 1852 1784 2244 2387 2253
0 0 0 0 0 0 0 0 0 0 0 0 0 0 0 0 0 0 0 0 0 0 0 0 16 0 27 36 67 38 4 94 197 603 570 286 332 93 144 971 1756 2034 2236 2578 2582
1 0 0 0 0 0 0 0 0 0 0 0 0 0 0 0 0 0 0 10 0 0 44 0 8 51 1 78 106 160 63 54 157 386 426 264 845 625 150 59 1690 2431 2728 2472 2798
0 3 0 0 0 0 0 0 0 0 0 0 0 0 0 0 0 0 0 0 0 0 0 18 241 4 1 16 19 39 10 55 32 23 130 258 844 563 59 107 480 1073 2226 2147 2496
0 0 0 3 0 0 0 0 0 0 0 0 0 0 0 0 0 0 0 10 23 113 0 0 155 0 0 11 1 14 23 51 18 15 26 200 663 650 120 0 0 725 1894 1659 2009
0 0 0 0 0 0 0 0 0 0 0 0 0 0 0 3 0 0 0 0 81 157 556 270 131 327 10 19 23 9 9 0 28 118 64 209 603 416 66 0 87 2052 1921 1752 1978
CIN
-0 -0 -0 -0 -0 -0 -0 -0 -0 -0 -0 -0 -0 -0 -0 -0 -0 -0 -0 -0 -0 -901 -0 -0 -0 -0 -109 -0 -24 -181 -120 -81 -44 -45 -0 -0 -46 -51 -57 -85 -58 -30 -44 -35 -48
-0 -0 -0 -0 -0 -0 -0 -0 -0 -0 -0 -0 -0 -0 -0 -0 -0 -0 -0 -0 -0 -0 -0 -0 -0 -0 -0 -0 -15 -29 -263 -109 -32 -7 -2 -2 -5 -19 -12 -43 -55 -61 -55 -75 -57
-0 -0 -0 -0 -0 -0 -0 -0 -0 -0 -0 -0 -0 -0 -0 -0 -0 -0 -0 -0 -0 -0 -0 -0 -0 -0 -0 -0 -185 -25 -111 -97 -61 -13 -23 -213 -81 -2 -31 -19 -48 -57 -83 -80 -63
-0 -0 -0 -0 -0 -0 -0 -0 -0 -0 -0 -0 -0 -0 -0 -0 -0 -0 -0 -0 -0 -0 -0 -0 -0 -0 -0 -38 -38 -63 -28 -4 -1 -0 -6 -143 -123 -4 -26 -19 -49 -70 -84 -77 -62
-0 -0 -0 -0 -0 -0 -0 -0 -0 -0 -0 -0 -0 -0 -0 -0 -0 -0 -51 -0 -0 -0 -0 -0 -0 -0 -0 -40 -30 -3 -5 -0 -0 -0 -25 -6 -8 -8 -17 -14 -45 -68 -76 -72 -57
-0 -0 -0 -0 -0 -0 -0 -0 -0 -0 -0 -0 -0 -0 -0 -0 -0 -0 -0 -0 -0 -0 -0 -0 -0 -0 -0 -0 -11 -28 -15 -0 -0 -0 -0 -12 -211 -276 -197 -15 -41 -53 -68 -57 -49
-0 -0 -0 -0 -0 -0 -0 -0 -0 -0 -0 -0 -0 -0 -0 -0 -0 -0 -0 -0 -0 -0 -0 -0 -0 -0 -0 -33 -8 -42 -76 -0 -0 -0 -0 -61 -325 -164 -457 -96 -26 -42 -59 -52 -49
-0 -0 -0 -0 -0 -0 -0 -0 -0 -0 -0 -0 -0 -0 -0 -0 -0 -0 -0 -0 -0 -0 -0 -0 -0 -0 -0 -28 -17 -36 -1 -0 -0 -42 -0 -0 -131 -141 -295 -279 -9 -33 -51 -50 -52
-0 -0 -0 -0 -0 -0 -0 -0 -0 -0 -0 -0 -0 -0 -0 -0 -0 -0 -0 -0 -0 -0 -0 -0 -0 -0 -0 -27 -48 -55 -10 -36 -27 -61 -8 -2 -122 -338 -568 -333 -12 -30 -41 -42 -49
-0 -0 -0 -0 -0 -0 -0 -0 -0 -0 -0 -0 -0 -0 -0 -0 -0 -0 -0 -0 -0 -0 -0 -0 -0 -0 -0 -31 -47 -134 -66 -47 -77 -25 -2 -13 -40 -76 -180 -162 -9 -18 -35 -23 -26
-0 -0 -0 -0 -0 -0 -0 -0 -0 -0 -0 -0 -0 -0 -0 -0 -0 -0 -0 -0 -0 -0 -0 -0 -0 -0 -0 -135 -80 -17 -0 -0 -109 -93 -0 -0 -0 -3 -10 -20 -2 -14 -36 -44 -36
-0 -0 -0 -0 -0 -0 -0 -0 -0 -0 -0 -0 -0 -0 -0 -0 -0 -0 -0 -0 -0 -0 -0 -0 -0 -0 -0 -0 -58 -7 -5 -26 -68 -21 -0 -0 -7 -9 -4 -2 -4 -3 -3 -24 -34
-0 -0 -0 -0 -0 -0 -0 -0 -0 -0 -0 -0 -0 -0 -0 -0 -0 -0 -0 -0 -0 -0 -0 -0 -0 -0 -0 -0 -38 -22 -4 -2 -1 -4 -18 -0 -25 -7 -51 -6 -9 -60 -18 -20 -20
-0 -0 -0 -0 -0 -0 -0 -0 -0 -0 -0 -0 -0 -0 -0 -0 -0 -0 -0 -0 -0 -0 -0 -0 -0 -0 -0 -0 -0 -27 -11 -8 -11 -3 -24 -0 -77 -2 -108 -56 -0 -5 -26 -4 -13
-0 -0 -0 -0 -0 -0 -0 -0 -0 -0 -0 -0 -0 -0 -0 -0 -0 -0 -0 -0 -0 -0 -0 -0 -0 -0 -0 -0 -0 -0 -0 -0 -54 -63 -0 -33 -32 -16 -73 -144 -3 -3 -9 -4 -5
-0 -0 -0 -0 -0 -0 -0 -0 -0 -0 -0 -0 -0 -0 -0 -0 -0 -0 -0 -0 -0 -0 -0 -0 -0 -0 -0 -0 -0 -0 -0 -33 -0 -0 -39 -29 -5 -34 -45 -15 -1 -5 -19 -8 -4
-0 -0 -0 -0 -0 -0 -0 -0 -0 -0 -0 -0 -0 -0 -0 -0 -0 -0 -0 -0 -0 -0 -0 -0 -0 -0 -0 -0 -0 -0 -0 -42 -32 -34 -37 -6 -5 -3 -18 -39 -29 -11 -1 -10 -4
-0 -0 -0 -0 -0 -0 -0 -0 -0 -0 -0 -0 -0 -0 -0 -0 -0 -0 -0 -0 -0 -0 -0 -0 -0 -0 -0 -0 -0 -0 -0 -20 -1 -0 -11 -79 -83 -6 -31 -54 -73 -52 -15 -3 -4
-0 -0 -0 -0 -0 -0 -0 -0 -0 -0 -0 -0 -0 -0 -0 -0 -0 -0 -0 -0 -0 -0 -0 -0 -0 -0 -0 -0 -0 -0 -0 -0 -9 -13 -1 -276 -111 -37 -22 -24 -42 -28 -2 -2 -1
-0 -0 -0 -0 -0 -0 -0 -0 -0 -0 -0 -0 -0 -0 -0 -0 -0 -0 -0 -0 -0 -0 -0 -4 -0 -0 -0 -0 -0 -0 -12 -19 -39 -2 -5 -1 -35 -154 -26 -5 -1 -1 -2 -4 -3
-0 -0 -0 -0 -0 -0 -0 -0 -0 -0 -0 -0 -0 -0 -0 -0 -0 -0 -0 -0 -0 -0 -0 -0 -0 -18 -0 -0 -19 -33 -42 -13 -0 -1 -11 -148 -114 -315 -469 -93 -12 -3 -3 -0 -0
-0 -0 -0 -0 -0 -0 -0 -0 -0 -0 -0 -0 -0 -0 -0 -0 -5 -2 -0 -0 -0 -0 -1 -0 -0 -37 -6 -4 -50 -2 -9 -27 -8 -2 -2 -210 -45 -275 -383 -12 -3 -2 -0 -1 -0
-0 -0 -0 -0 -0 -0 -0 -0 -0 -0 -0 -0 -0 -0 -0 -0 -0 -0 -0 -0 -0 -0 -0 -0 -4 -0 -20 -15 -4 -26 -42 -1 -4 -4 -10 -7 -11 -90 -94 -3 -5 -13 -16 -21 -17
-20 -0 -0 -0 -0 -0 -0 -0 -0 -0 -0 -0 -0 -0 -0 -0 -0 -0 -0 -3 -0 -0 -109 -0 -1 -24 -1 -14 -4 -8 -29 -25 -6 -1 -1 -1 -6 -119 -393 -236 -93 -19 -37 -43 -43
-0 -17 -0 -0 -0 -0 -0 -0 -0 -0 -0 -0 -0 -0 -0 -0 -0 -0 -0 -0 -1 -0 -0 -12 -16 -6 -35 -28 -22 -13 -47 -11 -28 -33 -20 -11 -86 -295 -530 -645 -354 -138 -54 -56 -55
-0 -0 -0 -1 -0 -0 -0 -0 -0 -0 -0 -0 -0 -0 -0 -0 -0 -0 -0 -2 -17 -1 -0 -0 -23 -1 -6 -56 -26 -31 -16 -31 -10 -27 -19 -33 -147 -266 -699 -0 -9 -272 -59 -60 -57
-0 -0 -0 -0 -0 -0 -0 -0 -0 -0 -0 -0 -0 -0 -0 -5 -0 -0 -0 -0 -28 -24 -12 -3 -8 -12 -12 -57 -33 -20 -24 -0 -6 -3 -11 -7 -138 -371 -557 -0 -549 -39 -43 -63 -64
Wind_Speed
16 16 16 16 16 17 17 18 19 19 18 19 18 16 15 17 19 6 9 3 3 9 3 11 11 12 14 13 3 7 5 6 14 14 11 19 16 17 15 15 14 17 18 20 17
16 17 17 17 17 16 17 17 19 19 19 20 19 16 13 14 9 14 2 8 9 8 9 11 11 10 11 16 8 9 6 9 17 11 13 17 12 19 14 17 15 14 18 17 17
17 17 17 17 18 17 17 18 18 19 19 21 20 17 14 13 9 5 5 7 6 5 13 16 15 16 15 18 13 8 13 27 27 9 12 29 17 22 8 16 15 16 17 17 16
18 19 19 19 19 18 18 18 19 19 20 21 22 19 15 7 3 7 9 7 5 7 13 15 13 16 16 20 13 15 22 13 11 6 10 21 18 11 14 14 18 18 18 17 16
19 19 20 21 21 20 20 19 19 19 19 19 20 17 11 9 5 11 11 9 9 10 13 14 17 16 17 14 27 6 13 3 5 2 5 10 15 8 16 15 19 19 17 15 14
19 20 20 21 21 21 20 20 20 19 19 19 16 16 9 15 10 14 15 14 14 16 15 15 15 18 19 16 25 2 14 6 5 11 4 1 22 20 27 15 17 17 16 15 15
19 20 20 21 23 23 22 22 22 20 19 18 13 8 12 15 0 3 8 11 10 10 14 13 12 14 15 19 4 5 12 9 10 7 9 23 14 17 39 25 15 15 13 13 13
19 20 21 21 22 23 23 23 23 22 18 15 9 8 9 2 4 8 10 12 10 11 12 11 8 17 22 20 14 9 11 8 22 18 7 8 8 20 21 20 10 14 12 12 12
20 20 21 22 23 24 25 26 25 19 12 11 8 10 17 3 8 14 14 12 11 11 12 9 10 17 18 16 14 17 10 12 11 29 21 5 9 19 32 27 16 14 12 12 11
19 20 21 22 23 24 28 29 9 9 9 10 12 11 12 10 7 3 8 7 7 11 13 12 12 15 16 16 15 14 20 18 14 23 14 11 17 21 30 33 17 17 15 14 12
21 21 22 22 23 21 17 11 7 7 9 15 4 13 7 4 2 9 11 8 12 12 12 15 12 16 20 19 21 24 15 10 20 27 6 13 12 13 11 10 13 19 20 18 15
21 21 22 23 23 23 8 8 8 7 11 16 21 17 10 2 7 11 12 10 13 13 15 14 16 18 21 21 22 18 28 24 23 20 4 12 10 8 15 11 6 14 21 18 17
21 22 22 25 26 12 11 11 8 10 8 17 21 18 16 13 14 13 13 13 15 14 16 17 15 17 20 19 12 14 11 13 12 4 6 11 9 11 12 10 5 1 8 17 17
21 21 21 27 7 10 10 4 8 5 8 15 19 12 15 16 17 16 14 14 13 16 15 15 15 12 11 9 15 14 13 13 14 10 7 6 11 9 6 14 10 9 10 15 15
21 21 20 8 13 7 8 7 9 7 7 8 16 5 13 16 11 20 14 14 16 16 11 12 14 13 11 13 13 16 12 15 18 10 12 11 9 10 8 27 7 10 9 1 16
20 19 21 4 8 14 11 9 8 8 11 7 8 10 15 19 18 10 16 14 12 15 14 15 15 13 11 12 14 12 15 12 7 10 12 15 12 8 12 23 8 12 7 8 15
21 18 12 10 5 7 8 8 7 10 13 12 9 13 17 18 19 14 15 17 14 11 14 14 17 9 14 16 17 12 13 8 9 10 13 16 16 4 11 9 7 11 11 9 15
24 21 9 9 9 9 7 9 12 11 21 13 8 16 18 19 21 21 16 15 18 20 13 13 16 18 13 15 9 12 16 11 13 9 5 15 9 4 14 11 8 3 6 12 13
31 6 6 9 12 8 8 12 11 16 12 19 14 14 12 14 17 20 21 18 18 19 17 15 17 13 18 13 16 14 13 18 19 17 9 8 10 14 8 10 8 10 10 12 9
8 10 10 9 7 7 9 16 17 20 7 10 11 10 15 19 14 16 18 19 19 19 18 17 10 14 17 14 15 18 11 11 11 12 14 7 9 11 4 11 10 11 13 10 8
6 7 7 8 7 8 11 17 20 11 2 6 10 15 21 19 11 17 18 17 17 20 16 13 12 15 11 10 13 10 11 10 14 11 2 5 5 1 16 16 11 12 12 9 8
8 8 8 8 8 9 12 19 9 5 1 11 9 14 18 14 12 6 15 11 12 15 14 13 8 13 18 16 14 17 13 16 10 10 6 10 17 16 22 12 13 12 11 10 8
6 5 5 8 9 11 16 20 5 8 10 8 10 12 14 14 7 10 17 9 9 2 4 10 10 12 14 14 15 16 19 13 12 9 13 3 2 5 13 9 12 11 9 5 3
6 4 7 5 12 13 10 13 10 8 15 13 10 11 7 11 9 9 17 5 3 9 8 7 8 9 14 14 10 14 15 14 16 8 10 11 12 14 15 23 15 8 8 8 5
6 5 4 8 11 12 7 6 10 12 9 10 11 11 10 9 13 14 15 16 4 5 7 6 9 13 14 19 18 17 16 19 18 16 16 11 11 13 8 23 22 23 5 7 7
8 7 8 4 4 4 6 9 10 10 6 9 10 12 17 15 15 13 10 11 12 6 13 11 8 11 17 18 20 22 20 6 17 18 17 9 8 9 11 18 15 22 5 6 4
8 10 5 1 7 9 12 12 8 3 5 11 13 8 15 4 9 13 13 10 11 10 11 10 10 10 14 16 18 19 19 16 17 11 14 17 11 14 8 20 23 10 7 6 8
Wind_Direction
355 351 349 345 342 338 335 331 326 323 321 314 314 316 316 313 301 232 241 96 160 163 256 263 232 249 261 263 146 134 24 22 336 110 83 105 100 108 112 84 67 61 116 120 140
352 348 346 342 339 334 330 328 324 319 318 314 310 312 315 316 271 242 125 146 149 172 238 242 258 250 256 269 70 89 260 245 228 162 141 102 121 136 125 113 103 95 103 126 141
349 346 341 339 337 331 330 324 321 317 316 313 309 314 318 311 269 88 190 215 157 205 260 285 268 267 259 261 113 96 237 245 262 19 93 45 324 99 230 115 131 132 135 144 145
346 344 339 338 334 332 326 321 318 316 315 312 311 316 314 253 304 119 180 212 216 243 253 265 259 263 261 268 192 169 257 222 100 197 153 140 220 94 85 99 121 135 143 148 157
345 342 338 335 333 330 324 321 315 312 310 308 309 320 313 241 229 142 184 197 228 230 241 244 253 255 266 278 305 254 305 170 164 201 320 149 124 264 110 113 123 137 145 154 158
344 341 337 334 330 325 320 316 312 310 308 305 307 319 254 273 106 154 196 183 231 219 239 245 258 260 274 276 253 112 275 234 171 146 221 268 350 44 340 127 135 145 152 161 155
342 339 337 332 326 323 320 315 311 308 305 302 306 289 269 255 92 219 202 227 245 253 268 238 280 297 270 268 174 228 275 236 227 181 212 104 126 112 245 295 149 156 163 157 156
340 338 334 329 325 322 317 312 306 300 298 292 293 267 262 95 320 236 242 242 226 239 263 308 283 275 274 281 291 229 263 37 319 302 211 228 104 45 323 277 179 166 168 155 160
337 336 333 330 325 321 316 308 296 288 264 278 263 227 269 144 222 229 226 239 235 214 237 250 276 264 259 257 257 224 188 132 219 263 278 149 148 177 222 251 190 169 168 165 166
336 334 330 327 324 323 320 294 284 299 216 250 258 270 244 238 214 249 233 241 277 260 228 215 236 251 247 254 246 80 9 340 303 266 227 226 200 199 201 226 175 169 167 165 171
336 332 329 326 321 325 336 321 227 182 220 248 177 238 151 229 217 236 237 217 236 249 258 224 231 233 242 243 260 123 190 171 286 269 298 279 294 193 151 190 182 173 167 163 174
333 328 326 323 317 316 285 268 59 320 296 274 253 259 272 237 268 218 210 219 221 239 232 255 219 240 242 253 257 300 165 194 221 214 226 278 264 270 172 185 188 200 154 159 172
329 327 326 322 316 286 242 304 329 310 262 269 243 239 229 218 241 249 195 219 245 223 249 241 246 210 244 256 278 269 300 296 290 188 193 265 279 262 34 319 171 15 161 164 177
327 326 327 325 285 333 266 25 291 313 269 264 218 220 222 219 234 243 201 225 223 254 241 255 248 274 241 248 265 261 271 269 282 298 273 75 309 196 153 263 195 187 182 180 169
324 322 319 330 314 272 16 305 320 260 270 235 175 147 206 204 263 194 236 214 246 228 254 246 241 255 240 254 252 262 275 280 253 266 282 246 212 143 43 217 192 113 61 181 153
320 319 325 205 213 259 305 293 264 235 237 173 145 198 220 205 232 227 197 226 233 257 246 251 275 237 232 242 249 253 258 280 291 261 255 250 267 154 162 246 127 100 100 120 141
317 310 299 305 246 347 305 259 224 240 236 274 198 208 206 212 215 204 193 206 225 221 244 240 250 222 260 237 232 232 252 233 235 229 237 245 240 127 125 103 46 112 138 143 145
314 307 226 242 286 257 264 228 238 230 246 262 292 209 215 213 206 225 209 219 216 242 247 214 226 225 215 243 236 215 244 244 234 242 36 4 332 348 121 134 132 184 166 151 163
311 219 229 230 223 253 240 224 218 250 252 264 234 256 252 242 231 195 220 226 217 217 249 262 241 210 204 207 239 217 223 259 278 281 257 178 233 227 161 151 152 125 150 135 153
310 278 240 136 190 215 231 242 238 240 340 308 286 230 238 249 220 240 212 219 246 223 214 260 297 275 186 203 220 252 230 229 247 274 279 286 99 357 100 160 113 132 108 101 127
243 231 108 150 186 219 224 232 238 260 329 277 280 284 280 270 260 208 240 227 218 247 213 220 257 277 184 197 238 203 256 266 264 245 332 23 329 262 42 283 151 131 124 156 157
271 261 133 173 204 222 230 241 266 284 144 256 268 282 294 294 286 299 241 231 219 229 220 207 239 246 270 196 201 263 230 228 263 273 223 166 211 177 173 192 134 129 146 162 176
266 217 162 203 224 221 225 244 238 278 246 266 236 266 289 293 311 285 286 50 32 149 5 291 219 257 263 272 203 215 247 256 228 245 269 252 237 209 233 106 109 125 123 125 132
275 209 150 217 269 294 286 218 242 207 269 274 278 281 269 270 285 276 287 127 114 283 356 314 259 231 252 238 243 209 235 252 264 262 255 244 127 86 49 37 5 132 135 144 153
249 279 25 192 207 251 282 327 235 229 190 243 250 257 264 253 264 250 267 295 191 218 251 270 269 272 255 267 284 279 250 211 231 243 250 273 111 69 83 53 352 301 141 134 133
293 345 337 322 338 190 111 253 252 257 226 196 240 251 222 242 261 268 255 303 289 294 202 245 239 265 274 277 271 272 277 292 229 225 234 212 119 142 101 103 228 273 208 154 156
7 308 268 310 192 225 220 221 200 325 322 277 290 238 247 291 264 288 314 306 309 321 323 226 245 234 256 265 264 265 259 271 281 209 237 249 158 160 146 169 200 222 202 155 133